Location: Flensburg
(54.6357°N, 9.5142°E)
Time: 05:47:05
(UTC+02:00)

ISS - Visible Passes

Search period start: 09 May 2021 00:00
Search period end: 19 May 2021 00:00
Orbit: 418 x 421 km, 51.6° (Epoch: 08 May)

Date Brightness Start Highest point End Pass type
(mag) Time Alt. Az. Time Alt. Az. Time Alt. Az.
09 May -2.2 02:03:26 23° ESE 02:03:26 23° ESE 02:05:16 10° E visible
09 May -3.5 03:36:22 17° WSW 03:38:45 50° S 03:42:04 10° E visible
10 May -1.2 01:17:27 11° ESE 01:17:27 11° ESE 01:17:43 10° E visible
10 May -3.5 02:50:22 34° SW 02:51:23 47° S 02:54:40 10° E visible
10 May -3.4 04:24:42 10° W 04:27:57 44° S 04:31:12 10° ESE visible
11 May -3.2 02:04:21 40° SSE 02:04:21 40° SSE 02:07:15 10° E visible
11 May -3.5 03:37:18 10° W 03:40:35 49° S 03:43:52 10° ESE visible
12 May -2.1 01:18:16 22° ESE 01:18:16 22° ESE 01:19:49 10° E visible
12 May -3.6 02:51:12 21° WSW 02:53:12 51° S 02:56:31 10° ESE visible
12 May -2.9 04:26:39 10° W 04:29:41 31° SSW 04:32:44 10° SE visible
13 May -1.3 00:32:06 11° E 00:32:06 11° E 00:32:20 10° E visible
13 May -3.6 02:05:02 39° SW 02:05:50 50° S 02:09:07 10° E visible
13 May -3.2 03:39:11 10° W 03:42:22 38° SSW 03:45:32 10° SE visible
14 May -3.5 01:18:38 46° SSE 01:18:38 46° SSE 01:21:44 10° E visible
14 May -3.5 02:51:46 10° W 02:55:01 44° S 02:58:15 10° ESE visible
14 May -2.3 04:28:48 10° WSW 04:31:19 19° SSW 04:33:50 10° SSE visible
14 May -2.2 22:52:37 10° S 22:54:51 17° SSE 22:55:40 15° SE visible
15 May -3.4 00:27:53 10° WSW 00:31:06 41° SSE 00:34:18 10° E visible
15 May -3.6 02:04:21 10° W 02:07:38 49° S 02:10:56 10° ESE visible
15 May -2.7 03:41:13 10° W 03:44:03 25° SSW 03:46:53 10° SSE visible
15 May -1.8 22:06:13 10° SSE 22:07:38 12° SE 22:09:04 10° ESE visible
15 May -3.2 23:40:40 10° SW 23:43:45 34° SSE 23:46:52 10° E visible
16 May -3.7 01:16:58 10° WSW 01:20:15 51° S 01:23:34 10° ESE visible
16 May -3.0 02:53:42 10° W 02:56:44 31° SSW 02:59:47 10° SE visible
16 May -2.8 22:53:30 10° SW 22:56:26 28° SSE 22:59:23 10° E visible
17 May -3.6 00:29:36 10° WSW 00:32:52 50° S 00:36:10 10° E visible
17 May -3.3 02:06:14 10° W 02:09:24 38° SSW 02:12:34 10° SE visible
17 May -2.0 03:43:39 10° WSW 03:45:35 15° SW 03:47:32 10° S visible
17 May -3.5 23:42:14 10° WSW 23:45:29 47° S 23:48:45 10° E visible
18 May -3.5 01:18:48 10° W 01:22:02 44° SSW 01:22:56 35° SSE visible
18 May -3.3 22:54:55 10° WSW 22:58:07 41° SSE 23:01:20 10° E visible
